Tracking 31027 objects as of 19-Jul-2025
HD Live streaming from Space Station
objects crossing your sky now

ARIANE 2 DEB

Track ARIANE 2 DEB now!


NORAD ID: 33551
Int'l Code: 1989-006AT
Perigee: 1,443.6 km
Apogee: 35,606.9 km
Inclination: 8.6 °
Period: 651.6 minutes
Semi major axis: 24896 km
RCS: 0.1256 m2 (medium)
Launch date: January 27, 1989
Source: France (FR)
Launch site: FRENCH GUIANA (FRGUI)

Note: This is SATELLITE DEBRIS
Your satellite tracking list
LANDSAT 5
Track 1 satellite(s)




NASA's NSSDC Master Catalog

Two Line Element Set (TLE):
1 33551U 89006AT  25199.29951037  .00000020  00000-0  00000-0 0  9994
2 33551   8.5958 218.0402 6861118 174.8719 282.6535  2.21004682 90644
Source of the keplerian elements: AFSPC